| time (UTC) | temp C | wind direction | speed KPH | gust KPH | rain 1hr cm | rain 24hr cm | rain mn cm | humidity % | barometer mb |
| 20260506221551 | 28 | 53 | 8.0 | 19.3 | 0.00 | 0.00 | 0.00 | 71 | 1008.4 |
| 20260506221511 | 28 | 27 | 9.7 | 19.3 | 0.00 | 0.00 | 0.00 | 71 | 1010.5 |
| 20260506220058 | 28 | 352 | 11.3 | 27.4 | 0.00 | 0.00 | 0.00 | 70 | 1008.3 |
| 20260506220012 | 28 | 5 | 8.0 | 27.4 | 0.00 | 0.00 | 0.00 | 71 | 1010.4 |
| 20260506214547 | 29 | 19 | 11.3 | 27.4 | 0.00 | 0.00 | 0.00 | 67 | 1008.3 |
| 20260506214511 | 29 | 328 | 11.3 | 27.4 | 0.00 | 0.00 | 0.00 | 68 | 1010.4 |
| 20260506213044 | 31 | 42 | 6.4 | 16.1 | 0.00 | 0.00 | 0.00 | 65 | 1008.2 |
| 20260506213019 | 31 | 49 | 4.8 | 16.1 | 0.00 | 0.00 | 0.00 | 66 | 1010.3 |
| 20260506211547 | 30 | 78 | 1.6 | 12.9 | 0.00 | 0.00 | 0.00 | 65 | 1008.2 |
| 20260506211516 | 30 | 80 | 1.6 | 12.9 | 0.00 | 0.00 | 0.00 | 66 | 1010.3 |
| 20260506210059 | 31 | 138 | 6.4 | 17.7 | 0.00 | 0.00 | 0.00 | 66 | 1008.2 |
| 20260506210010 | 31 | 46 | 6.4 | 17.7 | 0.00 | 0.00 | 0.00 | 66 | 1010.4 |
| 20260506204550 | 31 | 16 | 3.2 | 9.7 | 0.00 | 0.00 | 0.00 | 66 | 1008.4 |
| 20260506204507 | 30 | 17 | 3.2 | 9.7 | 0.00 | 0.00 | 0.00 | 69 | 1010.6 |
| 20260506203130 | 30 | 0 | 4.8 | 12.9 | 0.00 | 0.00 | 0.00 | 65 | 1008.5 |
| 20260506203006 | 30 | 83 | 3.2 | 12.9 | 0.00 | 0.00 | 0.00 | 66 | 1010.7 |
| 20260506201546 | 30 | 55 | 0.0 | 11.3 | 0.00 | 0.00 | 0.00 | 67 | 1008.7 |
| 20260506201503 | 30 | 119 | 0.0 | 11.3 | 0.00 | 0.00 | 0.00 | 68 | 1010.8 |
| 20260506200100 | 30 | 28 | 1.6 | 12.9 | 0.00 | 0.00 | 0.00 | 71 | 1011.0 |
| 20260506200050 | 30 | 28 | 3.2 | 12.9 | 0.00 | 0.00 | 0.00 | 70 | 1009.1 |
| 20260506194558 | 30 | 123 | 3.2 | 11.3 | 0.00 | 0.00 | 0.00 | 71 | 1011.2 |
| 20260506194550 | 30 | 118 | 3.2 | 11.3 | 0.00 | 0.00 | 0.00 | 71 | 1009.1 |
| 20260506193056 | 29 | 55 | 3.2 | 12.9 | 0.00 | 0.00 | 0.00 | 74 | 1011.2 |
| 20260506193041 | 29 | 52 | 3.2 | 12.9 | 0.00 | 0.00 | 0.00 | 74 | 1009.2 |
| 20260506191554 | 28 | 153 | 3.2 | 9.7 | 0.00 | 0.00 | 0.00 | 75 | 1011.3 |
| 20260506191544 | 28 | 104 | 1.6 | 12.9 | 0.00 | 0.00 | 0.00 | 75 | 1009.4 |
| 20260506190053 | 28 | 45 | 1.6 | 12.9 | 0.00 | 0.00 | 0.00 | 76 | 1011.4 |
| 20260506190050 | 28 | 44 | 4.8 | 12.9 | 0.00 | 0.00 | 0.00 | 76 | 1009.4 |
| 20260506184555 | 28 | 117 | 6.4 | 14.5 | 0.00 | 0.00 | 0.00 | 77 | 1011.6 |
| 20260506183047 | 27 | 109 | 6.4 | 14.5 | 0.00 | 0.00 | 0.00 | 77 | 1012.0 |
| 20260506183045 | 27 | 109 | 8.0 | 14.5 | 0.00 | 0.00 | 0.00 | 76 | 1009.9 |
| 20260506181545 | 27 | 44 | 4.8 | 14.5 | 0.00 | 0.00 | 0.00 | 79 | 1012.1 |
| 20260506181542 | 27 | 32 | 3.2 | 11.3 | 0.00 | 0.00 | 0.00 | 79 | 1010.1 |
| 20260506180045 | 27 | 82 | 8.0 | 16.1 | 0.00 | 0.00 | 0.00 | 78 | 1010.1 |
| 20260506174610 | 27 | 66 | 6.4 | 16.1 | 0.00 | 0.00 | 0.00 | 80 | 1010.2 |
| 20260506174541 | 27 | 67 | 6.4 | 16.1 | 0.00 | 0.00 | 0.00 | 80 | 1012.4 |
| 20260506173054 | 27 | 51 | 6.4 | 16.1 | 0.00 | 0.00 | 0.00 | 82 | 1010.1 |
| 20260506173050 | 27 | 37 | 6.4 | 16.1 | 0.00 | 0.00 | 0.00 | 82 | 1012.3 |
| 20260506171543 | 26 | 13 | 6.4 | 14.5 | 0.00 | 0.00 | 0.00 | 82 | 1010.3 |
| 20260506171538 | 26 | 19 | 4.8 | 14.5 | 0.00 | 0.00 | 0.00 | 83 | 1012.6 |
| 20260506170046 | 26 | 91 | 3.2 | 12.9 | 0.00 | 0.00 | 0.00 | 82 | 1010.2 |
| 20260506170036 | 26 | 91 | 3.2 | 12.9 | 0.00 | 0.00 | 0.00 | 83 | 1012.7 |
| 20260506164547 | 26 | 37 | 0.0 | 6.4 | 0.00 | 0.00 | 0.00 | 84 | 1010.3 |
| 20260506164533 | 26 | 37 | 1.6 | 6.4 | 0.00 | 0.00 | 0.00 | 85 | 1012.6 |
| 20260506163103 | 26 | 36 | 4.8 | 9.7 | 0.00 | 0.00 | 0.00 | 86 | 1010.3 |
| 20260506163050 | 26 | 36 | 3.2 | 9.7 | 0.00 | 0.00 | 0.00 | 87 | 1012.5 |
| 20260506161626 | 25 | 13 | 3.2 | 8.0 | 0.00 | 0.00 | 0.00 | 90 | 1012.5 |
| 20260506161542 | 25 | 5 | 3.2 | 8.0 | 0.00 | 0.00 | 0.00 | 89 | 1010.2 |
| 20260506160051 | 24 | 40 | 3.2 | 6.4 | 0.00 | 0.00 | 0.00 | 91 | 1010.0 |
| 20260506160023 | 24 | 41 | 3.2 | 6.4 | 0.00 | 0.00 | 0.00 | 92 | 1012.3 |
| 20260506154554 | 24 | 0 | 0.0 | 4.8 | 0.00 | 0.00 | 0.00 | 90 | 1010.0 |
| 20260506154531 | 24 | 50 | 1.6 | 4.8 | 0.00 | 0.00 | 0.00 | 91 | 1012.3 |
| 20260506153047 | 24 | 80 | 1.6 | 6.4 | 0.00 | 0.00 | 0.00 | 90 | 1009.8 |
| 20260506153025 | 24 | 80 | 3.2 | 6.4 | 0.00 | 0.00 | 0.00 | 91 | 1012.2 |
| 20260506151544 | 24 | 58 | 1.6 | 4.8 | 0.00 | 0.00 | 0.00 | 89 | 1009.5 |
| 20260506151520 | 24 | 63 | 1.6 | 4.8 | 0.00 | 0.00 | 0.00 | 90 | 1012.0 |
| 20260506150042 | 24 | 52 | 1.6 | 6.4 | 0.00 | 0.00 | 0.00 | 89 | 1009.4 |
| 20260506150019 | 24 | 51 | 0.0 | 6.4 | 0.00 | 0.00 | 0.00 | 90 | 1011.7 |
| 20260506144547 | 24 | 46 | 3.2 | 6.4 | 0.00 | 0.00 | 0.00 | 89 | 1009.4 |
| 20260506144518 | 24 | 46 | 3.2 | 6.4 | 0.00 | 0.00 | 0.00 | 90 | 1011.7 |
| 20260506143042 | 24 | 0 | 0.0 | 8.0 | 0.00 | 0.00 | 0.00 | 90 | 1009.1 |
| 20260506143016 | 24 | 124 | 0.0 | 4.8 | 0.00 | 0.00 | 0.00 | 90 | 1011.2 |
| 20260506141549 | 24 | 126 | 4.8 | 11.3 | 0.00 | 0.00 | 0.00 | 89 | 1008.9 |
| 20260506141514 | 24 | 119 | 4.8 | 11.3 | 0.00 | 0.00 | 0.00 | 90 | 1011.1 |
| 20260506140049 | 24 | 141 | 3.2 | 12.9 | 0.00 | 0.00 | 0.00 | 90 | 1008.6 |
| 20260506140019 | 24 | 159 | 1.6 | 12.9 | 0.00 | 0.00 | 0.00 | 91 | 1010.7 |
| 20260506134542 | 23 | 125 | 6.4 | 16.1 | 0.00 | 0.00 | 0.00 | 91 | 1008.1 |
| 20260506134510 | 23 | 134 | 8.0 | 12.9 | 0.00 | 0.00 | 0.00 | 91 | 1010.5 |
| 20260506133049 | 23 | 91 | 3.2 | 12.9 | 0.00 | 0.00 | 0.00 | 91 | 1008.2 |
| 20260506133009 | 23 | 146 | 3.2 | 9.7 | 0.00 | 0.00 | 0.00 | 92 | 1010.2 |
| 20260506131544 | 23 | 152 | 3.2 | 12.9 | 0.00 | 0.00 | 0.00 | 92 | 1008.2 |
| 20260506131517 | 23 | 137 | 3.2 | 11.3 | 0.00 | 0.00 | 0.00 | 93 | 1010.2 |
| 20260506130042 | 23 | 115 | 6.4 | 16.1 | 0.00 | 0.00 | 0.00 | 92 | 1007.9 |
| 20260506130007 | 23 | 145 | 6.4 | 16.1 | 0.00 | 0.00 | 0.00 | 93 | 1009.9 |
| 20260506124546 | 23 | 102 | 3.2 | 12.9 | 0.00 | 0.00 | 0.00 | 93 | 1007.9 |
| 20260506124505 | 23 | 103 | 3.2 | 12.9 | 0.00 | 0.00 | 0.00 | 93 | 1009.9 |
| 20260506123052 | 23 | 148 | 4.8 | 12.9 | 0.00 | 0.00 | 0.00 | 93 | 1007.8 |
| 20260506123009 | 23 | 163 | 4.8 | 12.9 | 0.00 | 0.00 | 0.00 | 93 | 1009.8 |
| 20260506121608 | 23 | 130 | 6.4 | 9.7 | 0.00 | 0.00 | 0.00 | 93 | 1010.0 |
| 20260506121554 | 23 | 106 | 3.2 | 8.0 | 0.00 | 0.00 | 0.00 | 92 | 1007.8 |
| 20260506120053 | 23 | 142 | 1.6 | 12.9 | 0.00 | 0.00 | 0.00 | 93 | 1010.1 |
| 20260506120047 | 23 | 148 | 3.2 | 12.9 | 0.00 | 0.00 | 0.00 | 92 | 1007.8 |
| 20260506114553 | 23 | 178 | 1.6 | 4.8 | 0.00 | 0.00 | 0.00 | 92 | 1010.0 |
| 20260506114549 | 23 | 178 | 1.6 | 4.8 | 0.00 | 0.00 | 0.00 | 92 | 1007.8 |
| 20260506113052 | 23 | 180 | 3.2 | 6.4 | 0.00 | 0.00 | 0.00 | 92 | 1009.9 |
| 20260506113044 | 23 | 180 | 3.2 | 6.4 | 0.00 | 0.00 | 0.00 | 92 | 1007.7 |
| 20260506111551 | 23 | 166 | 4.8 | 9.7 | 0.00 | 0.00 | 0.00 | 92 | 1010.0 |
| 20260506111542 | 23 | 158 | 4.8 | 9.7 | 0.00 | 0.00 | 0.00 | 92 | 1007.7 |
| 20260506110051 | 23 | 123 | 1.6 | 4.8 | 0.00 | 0.00 | 0.00 | 92 | 1010.0 |
| 20260506110047 | 23 | 123 | 1.6 | 4.8 | 0.00 | 0.00 | 0.00 | 91 | 1007.7 |
| 20260506104550 | 23 | 153 | 3.2 | 8.0 | 0.00 | 0.00 | 0.00 | 92 | 1009.7 |
| 20260506103049 | 23 | 138 | 1.6 | 6.4 | 0.00 | 0.00 | 0.00 | 92 | 1009.7 |
| 20260506103043 | 23 | 0 | 0.0 | 8.0 | 0.00 | 0.00 | 0.00 | 91 | 1007.4 |
| 20260506101601 | 23 | 145 | 3.2 | 12.9 | 0.00 | 0.00 | 0.00 | 92 | 1009.7 |
| 20260506101544 | 23 | 0 | 3.2 | 12.9 | 0.00 | 0.00 | 0.00 | 91 | 1007.5 |
| 20260506100047 | 23 | 166 | 3.2 | 11.3 | 0.00 | 0.00 | 0.00 | 92 | 1009.6 |
| 20260506094550 | 23 | 123 | 4.8 | 14.5 | 0.00 | 0.00 | 0.00 | 92 | 1007.5 |
| 20260506094548 | 23 | 126 | 6.4 | 12.9 | 0.00 | 0.00 | 0.00 | 92 | 1009.7 |
| 20260506093051 | 23 | 175 | 3.2 | 17.7 | 0.00 | 0.00 | 0.00 | 92 | 1007.4 |
| 20260506093045 | 23 | 176 | 4.8 | 17.7 | 0.00 | 0.00 | 0.00 | 92 | 1009.7 |
| 20260506091545 | 23 | 148 | 3.2 | 11.3 | 0.00 | 0.00 | 0.00 | 92 | 1009.5 |
| 20260506090051 | 23 | 167 | 3.2 | 16.1 | 0.00 | 0.00 | 0.00 | 92 | 1009.5 |
| 20260506090049 | 23 | 167 | 4.8 | 17.7 | 0.00 | 0.00 | 0.00 | 91 | 1007.4 |
| 20260506084551 | 23 | 0 | 6.4 | 19.3 | 0.00 | 0.00 | 0.00 | 91 | 1007.6 |
| 20260506084545 | 23 | 109 | 8.0 | 19.3 | 0.00 | 0.00 | 0.00 | 91 | 1009.8 |
| 20260506083047 | 23 | 165 | 3.2 | 12.9 | 0.00 | 0.00 | 0.00 | 90 | 1007.6 |
| 20260506083039 | 23 | 166 | 3.2 | 12.9 | 0.00 | 0.00 | 0.00 | 91 | 1009.9 |
| 20260506081549 | 23 | 155 | 4.8 | 17.7 | 0.00 | 0.00 | 0.00 | 90 | 1007.6 |
| 20260506081542 | 23 | 153 | 4.8 | 16.1 | 0.00 | 0.00 | 0.00 | 91 | 1010.0 |
| 20260506073046 | 24 | 175 | 4.8 | 17.7 | 0.00 | 0.00 | 0.00 | 90 | 1007.9 |
| 20260506073034 | 24 | 161 | 3.2 | 14.5 | 0.00 | 0.00 | 0.00 | 90 | 1010.0 |
| 20260506071544 | 24 | 145 | 3.2 | 14.5 | 0.00 | 0.00 | 0.00 | 90 | 1008.0 |
| 20260506071532 | 24 | 144 | 4.8 | 14.5 | 0.00 | 0.00 | 0.00 | 90 | 1010.0 |
| 20260506061548 | 24 | 178 | 4.8 | 22.5 | 0.00 | 0.00 | 0.00 | 90 | 1008.0 |
| 20260506061528 | 24 | 178 | 4.8 | 22.5 | 0.00 | 0.00 | 0.00 | 90 | 1010.2 |
| 20260506044544 | 25 | 136 | 8.0 | 19.3 | 0.00 | 0.00 | 0.00 | 88 | 1007.8 |
| 20260506044517 | 25 | 129 | 8.0 | 19.3 | 0.00 | 0.00 | 0.00 | 88 | 1010.0 |
| 20260506043043 | 25 | 94 | 6.4 | 17.7 | 0.00 | 0.00 | 0.00 | 88 | 1007.7 |
| 20260506043014 | 25 | 143 | 4.8 | 17.7 | 0.00 | 0.00 | 0.00 | 88 | 1010.0 |
| 20260506041556 | 25 | 115 | 6.4 | 14.5 | 0.00 | 0.00 | 0.00 | 87 | 1007.5 |
| 20260506041523 | 25 | 144 | 6.4 | 14.5 | 0.00 | 0.00 | 0.00 | 87 | 1009.8 |
| 20260506040042 | 25 | 139 | 8.0 | 22.5 | 0.00 | 0.00 | 0.00 | 86 | 1007.3 |
| 20260506040013 | 25 | 142 | 6.4 | 22.5 | 0.00 | 0.00 | 0.00 | 87 | 1009.6 |
| 20260506034613 | 25 | 159 | 9.7 | 19.3 | 0.00 | 0.00 | 0.00 | 86 | 1009.5 |
| 20260506034551 | 25 | 114 | 11.3 | 24.1 | 0.00 | 0.00 | 0.00 | 85 | 1007.2 |
| 20260506033043 | 26 | 136 | 11.3 | 22.5 | 0.00 | 0.00 | 0.00 | 85 | 1007.0 |
| 20260506033011 | 26 | 138 | 9.7 | 22.5 | 0.00 | 0.00 | 0.00 | 85 | 1009.3 |
| 20260506031545 | 26 | 143 | 9.7 | 20.9 | 0.00 | 0.00 | 0.00 | 84 | 1006.9 |
| 20260506031511 | 26 | 101 | 11.3 | 17.7 | 0.00 | 0.00 | 0.00 | 84 | 1009.3 |
| 20260506030049 | 26 | 157 | 6.4 | 16.1 | 0.00 | 0.00 | 0.00 | 83 | 1006.7 |
| 20260506030010 | 26 | 134 | 6.4 | 16.1 | 0.00 | 0.00 | 0.00 | 83 | 1009.0 |
| 20260506024543 | 27 | 123 | 11.3 | 20.9 | 0.00 | 0.00 | 0.00 | 82 | 1006.5 |
| 20260506024509 | 27 | 139 | 9.7 | 20.9 | 0.00 | 0.00 | 0.00 | 82 | 1008.8 |
| 20260506023102 | 27 | 141 | 9.7 | 22.5 | 0.00 | 0.00 | 0.00 | 80 | 1006.3 |
| 20260506023008 | 27 | 124 | 9.7 | 22.5 | 0.00 | 0.00 | 0.00 | 80 | 1008.6 |
| 20260506021544 | 27 | 126 | 8.0 | 16.1 | 0.00 | 0.00 | 0.00 | 78 | 1006.2 |
| 20260506021508 | 27 | 131 | 6.4 | 16.1 | 0.00 | 0.00 | 0.00 | 78 | 1008.5 |
| 20260506020051 | 28 | 127 | 9.7 | 17.7 | 0.00 | 0.00 | 0.00 | 76 | 1006.2 |
| 20260506020007 | 28 | 79 | 9.7 | 17.7 | 0.00 | 0.00 | 0.00 | 77 | 1008.4 |
| 20260506014545 | 28 | 114 | 9.7 | 16.1 | 0.00 | 0.00 | 0.00 | 75 | 1005.7 |
| 20260506014507 | 28 | 138 | 9.7 | 16.1 | 0.00 | 0.00 | 0.00 | 76 | 1007.9 |
| 20260506013052 | 28 | 82 | 6.4 | 14.5 | 0.00 | 0.00 | 0.00 | 75 | 1005.4 |
| 20260506013018 | 28 | 107 | 4.8 | 12.9 | 0.00 | 0.00 | 0.00 | 75 | 1007.7 |
| 20260506011548 | 28 | 104 | 9.7 | 19.3 | 0.00 | 0.00 | 0.00 | 74 | 1005.3 |
| 20260506011520 | 28 | 74 | 8.0 | 19.3 | 0.00 | 0.00 | 0.00 | 74 | 1007.5 |
| 20260506010048 | 29 | 126 | 6.4 | 12.9 | 0.00 | 0.00 | 0.00 | 73 | 1005.0 |
| 20260506010008 | 29 | 113 | 6.4 | 12.9 | 0.00 | 0.00 | 0.00 | 73 | 1007.3 |
| 20260506004543 | 29 | 86 | 3.2 | 9.7 | 0.00 | 0.00 | 0.00 | 72 | 1005.0 |
| 20260506004505 | 29 | 86 | 3.2 | 8.0 | 0.00 | 0.00 | 0.00 | 72 | 1007.1 |
| 20260506003042 | 30 | 113 | 4.8 | 11.3 | 0.00 | 0.00 | 0.00 | 71 | 1004.9 |
| 20260506003003 | 30 | 137 | 4.8 | 11.3 | 0.00 | 0.00 | 0.00 | 71 | 1007.2 |
| 20260506001553 | 30 | 98 | 6.4 | 12.9 | 0.00 | 0.00 | 0.00 | 70 | 1004.9 |
| 20260506001503 | 30 | 121 | 6.4 | 12.9 | 0.00 | 0.00 | 0.00 | 71 | 1007.2 |
| 20260506000057 | 30 | 0 | 0.0 | 3.2 | 0.00 | 0.00 | 0.00 | 71 | 1004.8 |
| 20260506000002 | 30 | 184 | 0.0 | 0.0 | 0.00 | 0.00 | 0.00 | 71 | 1007.0 |
| 20260505234541 | 30 | 180 | 0.0 | 8.0 | 0.00 | 0.00 | 0.00 | 70 | 1004.8 |
| 20260505234503 | 30 | 180 | 0.0 | 8.0 | 0.00 | 0.00 | 0.00 | 71 | 1007.0 |
| 20260505233050 | 30 | 180 | 3.2 | 9.7 | 0.00 | 0.00 | 0.00 | 70 | 1004.8 |
| 20260505233001 | 30 | 180 | 3.2 | 6.4 | 0.00 | 0.00 | 0.00 | 70 | 1007.1 |
| 20260505231546 | 30 | 0 | 0.0 | 12.9 | 0.00 | 0.00 | 0.00 | 70 | 1004.7 |
| 20260505231501 | 30 | 169 | 0.0 | 12.9 | 0.00 | 0.00 | 0.00 | 71 | 1007.1 |
| 20260505230122 | 30 | 180 | 0.0 | 6.4 | 0.00 | 0.00 | 0.00 | 70 | 1007.0 |
| 20260505230110 | 30 | 180 | 0.0 | 8.0 | 0.00 | 0.00 | 0.00 | 69 | 1004.8 |
| 20260505224600 | 30 | 153 | 3.2 | 16.1 | 0.00 | 0.00 | 0.00 | 68 | 1007.1 |
| 20260505224543 | 30 | 119 | 1.6 | 16.1 | 0.00 | 0.00 | 0.00 | 69 | 1004.8 |
| 20260505223059 | 30 | 157 | 6.4 | 14.5 | 0.00 | 0.00 | 0.00 | 70 | 1007.1 |
| 20260505223052 | 30 | 192 | 4.8 | 14.5 | 0.00 | 0.00 | 0.00 | 69 | 1004.7 |